Location: Podia
(1.5569°N, 32.3469°E)
Time: 13:07:58
(UTC+00:00)

S-56A Canister/Altair - Visible Passes

Search period start: 26 September 2020 00:00
Search period end: 06 October 2020 00:00
Orbit: 633 x 2499 km, 38.9° (Epoch: 25 September)

Date Brightness Start Highest point End Pass type
(mag) Time Alt. Az. Time Alt. Az. Time Alt. Az.
30 Sep 10.8 18:45:01 10° NNW 18:46:40 15° NNW 18:46:40 15° NNW visible
01 Oct 10.4 18:11:44 10° NNW 18:15:54 21° N 18:15:54 21° N visible
02 Oct 10.1 17:38:25 10° NNW 17:45:12 24° NNE 17:45:12 24° NNE visible
03 Oct 10.0 17:05:03 10° NNW 17:13:19 23° NNE 17:14:35 22° NE visible
03 Oct 10.8 19:09:57 10° NW 19:12:03 17° NW 19:12:03 17° NW visible
04 Oct 10.1 16:31:39 10° NNW 16:39:57 21° NNE 16:44:02 16° ENE visible
04 Oct 10.1 18:36:24 10° NW 18:41:30 31° NW 18:41:30 31° NW visible
05 Oct 10.4 15:58:15 10° NNW 16:06:30 20° NNE 16:13:06 10° ENE visible
05 Oct 9.3 18:02:48 10° NW 18:11:04 49° NNW 18:11:04 49° NNW visible
